Regional Weather Roundup
Issued by NWS Albany, NY

Home | Current Version | Previous Version | Graphics & Text | Print | Product List | Glossary On
Versions: 1 2 3 4 5 6 7 8 9 10 11 12 13 14 15 16 17 18 19 20 21 22 23 24 25 26 27 28 29 30 31 32 33 34 35 36 37 38 39 40 41 42 43 44 45 46 47 48 49 50
954
ASUS41 KALY 042310
RWRALY

NEW YORK STATE HOURLY WEATHER ROUNDUP
NATIONAL WEATHER SERVICE ALBANY NY
600 PM EST THU FEB 04 2016

NOTE: "FAIR" INDICATES FEW OR NO CLOUDS BELOW 12,000 FEET WITH NO
SIGNIFICANT WEATHER AND/OR NO OBSTRUCTIONS TO VISIBILITY.

NYZ032-033-038>043-046>054-057>066-NYZ062>081-050000-
EAST


CITY           SKY/WX    TMP DP  RH WIND       PRES   REMARKS
ALBANY         CLOUDY    40  25  55 NW8       30.08S WCI  34
GLENS FALLS    MOCLDY    39  24  55 W3        30.08R
POUGHKEEPSIE   CLOUDY    46  27  47 NE3       30.08R
NEWBURGH       MOCLDY    45  30  57 VRB5      30.08R
MONTGOMERY     CLOUDY    41  30  65 NE6       30.06R
WHITE PLAINS   CLOUDY    48  33  56 CALM      30.05R
ISLIP          LGT RAIN  47  40  76 NE3       30.03R
NEW YORK CITY  CLOUDY    50  32  50 N5        30.05R
CENTRAL PARK   CLOUDY    50  28  42 NW5       30.08R
$$

NYZ005>009-017-018-044>046-055-056-050000-
CENTRAL


CITY           SKY/WX    TMP DP  RH WIND       PRES   REMARKS
FULTON         CLOUDY    36  27  69 W6        30.15R WCI  31
SYRACUSE       CLOUDY    35  27  72 W10       30.14R WCI  27
ROME           CLOUDY    36  29  75 W8        30.13R WCI  30
ELMIRA         CLOUDY    39  26  59 N6        30.10R WCI  35
BINGHAMTON     CLOUDY    36  25  64 N7        30.06R WCI  30
MONTICELLO     CLOUDY    37  25  60 N5        30.08R WCI  34
$$

NYZ026>034-041>043-050000-
NORTH


CITY           SKY/WX    TMP DP  RH WIND       PRES   REMARKS
WATERTOWN      CLEAR     32  27  81 SW5       30.12R WCI  27
FORT DRUM      NOT AVBL
MASSENA        CLOUDY    34  25  69 CALM      30.10R
SARANAC LAKE   CLOUDY    32  21  64 SW5       30.02R WCI  27
PLATTSBURGH    CLOUDY    39  26  59 NE8       30.09R WCI  33
$$

NYZ001>004-010>016-019>021-050000-
WEST


CITY           SKY/WX    TMP DP  RH WIND       PRES   REMARKS
NIAGARA FALLS  MOCLDY    36  23  59 NW6       30.14R WCI  31
BUFFALO        CLOUDY    34  25  69 SW9       30.14R WCI  27
DUNKIRK        CLOUDY    33  26  75 SW8       30.16R WCI  26
JAMESTOWN      CLOUDY    30  19  64 NW6       30.09S WCI  24
WELLSVILLE     CLOUDY    32  24  72 NW9       30.09R WCI  24
ROCHESTER      FLURRIES  35  26  69 N7        30.15R WCI  29
PENN YAN       CLOUDY    37  26  64 VRB5      30.12R WCI  33
$$

             KEY
       WCI = WIND CHILL INDEX
       VSB = VISIBILITY
       HX  = HEAT INDEX
$$




USA.gov is the U.S. government's official web portal to all federal, state and local government web resources and services.